Tracking 29924 objects as of 4-Dec-2024
HD Live streaming from Space Station
objects crossing your sky now

CARTOSAT-1

Track CARTOSAT-1 now!
10-day predictions
CARTOSAT-1 is classified as:


NORAD ID: 28649
Int'l Code: 2005-017A
Perigee: 608.1 km
Apogee: 611.7 km
Inclination: 97.6 °
Period: 96.7 minutes
Semi major axis: 6980 km
RCS: 4.7551 m2 (large)
Launch date: May 5, 2005
Source: India (IND)
Launch site: SRIHARIKOTA (SRI)

Remote sensing and mapping, land use, forest cover, river flow assessments.
Your satellite tracking list
Your tracking list is empty




NASA's NSSDC Master Catalog

Two Line Element Set (TLE):
1 28649U 05017A   24338.84569632  .00004269  00000-0  46546-3 0  9994
2 28649  97.5926  15.2805 0002557 104.6862 255.4639 14.88451432 60387
Source of the keplerian elements: AFSPC